Change the Weather History Date:

Saturday, September 21, 2013

  Actual Average (KPBG) Record (KPBG)
Temperature  
Mean Temperature - 57 °F  
Max Temperature - 68 °F 89 °F (1965)
Min Temperature - 46 °F 31 °F (1956)
Degree Days  
Heating Degree Days 8  
Month to date heating degree days 102  
Since 1 July heating degree days 143  
Cooling Degree Days 0  
Month to date cooling degree days 19  
Year to date cooling degree days 341  
Moisture  
Dew Point -    
Average Humidity    
Maximum Humidity    
Minimum Humidity    
Precipitation  
Precipitation 0.00 in - 2.13 in (1983)
Month to date precipitation  
Year to date precipitation  
Sea Level Pressure  
Sea Level Pressure 29.71 in    
Wind  
Wind Speed 12 mph (South)    
Max Wind Speed 18 mph    
Max Gust Speed 36 mph    
Visibility 10 miles    
Events Rain    
T = Trace of Precipitation, MM = Missing Value Source: NWS Daily Summary

Daily Weather History Graph

Daily Weather History Graph

Search for Another Location

Airport or City:

Trip Planner

Search our weather history database for the weather conditions in past years. The results will help you decide how hot, cold, wet, or windy it might be!

Date:

Astronomy

Sep. 21, 2013 Rise Set
Actual Time 6:38 AM EDT 6:51 PM EDT
Civil Twilight 6:09 AM EDT 7:20 PM EDT
Nautical Twilight 5:34 AM EDT 7:54 PM EDT
Astronomical Twilight 4:59 AM EDT 8:30 PM EDT
Moon 7:51 PM EDT (9/21) 9:01 AM EDT (9/21)
Length of Visible Light 13h 11m
Length of Day
12h 12m
Waning Gibbous, 94% of the Moon is Illuminated
Sep 21
Waning Gibbous
Sep 26
Last Quarter
Oct 4
New
Oct 11
First Quarter
Oct 18
Full

Hourly Weather History & Observations

Time (EDT) Temp. Dew Point Humidity Pressure Visibility Wind Dir Wind Speed Gust Speed Precip Events Conditions
12:15 AM - - N/A% 29.86 in 10.0 mi South 10.4 mph 19.6 mph N/A   Clear
12:35 AM - - N/A% 29.86 in 10.0 mi South 9.2 mph 16.1 mph N/A   Clear
12:55 AM - - N/A% 29.86 in 10.0 mi SSE 11.5 mph 17.3 mph N/A   Clear
1:15 AM - - N/A% 29.86 in 10.0 mi South 13.8 mph 21.9 mph N/A   Clear
1:35 AM - - N/A% 29.87 in 10.0 mi South 10.4 mph 20.7 mph N/A   Clear
1:55 AM - - N/A% 29.86 in 10.0 mi South 11.5 mph 18.4 mph N/A   Clear
2:15 AM - - N/A% 29.85 in 10.0 mi South 16.1 mph 25.3 mph N/A   Clear
2:35 AM - - N/A% 29.84 in 10.0 mi SSE 13.8 mph 21.9 mph N/A   Clear
2:55 AM - - N/A% 29.84 in 10.0 mi South 9.2 mph 17.3 mph N/A   Clear
3:15 AM - - N/A% 29.83 in 10.0 mi South 15.0 mph 20.7 mph N/A   Clear
3:35 AM - - N/A% 29.82 in 10.0 mi South 16.1 mph 25.3 mph N/A   Clear
3:55 AM - - N/A% 29.82 in 10.0 mi South 11.5 mph 20.7 mph N/A   Clear
4:15 AM - - N/A% 29.81 in 10.0 mi SSE 12.7 mph - N/A   Clear
4:35 AM - - N/A% 29.81 in 10.0 mi South 6.9 mph - N/A   Clear
4:55 AM - - N/A% 29.81 in 10.0 mi South 8.1 mph 16.1 mph N/A   Clear
5:15 AM - - N/A% 29.81 in 10.0 mi South 8.1 mph - N/A   Clear
5:35 AM - - N/A% 29.81 in 10.0 mi South 8.1 mph - N/A   Clear
5:55 AM - - N/A% 29.81 in 10.0 mi South 9.2 mph 16.1 mph N/A   Clear
6:15 AM - - N/A% 29.80 in 10.0 mi South 6.9 mph 16.1 mph N/A   Clear
6:35 AM - - N/A% 29.80 in 10.0 mi South 11.5 mph 19.6 mph N/A   Clear
6:55 AM - - N/A% 29.79 in 10.0 mi South 12.7 mph 18.4 mph N/A   Clear
7:15 AM - - N/A% 29.79 in 10.0 mi South 13.8 mph 18.4 mph N/A   Clear
7:35 AM - - N/A% 29.79 in 10.0 mi South 10.4 mph 18.4 mph N/A   Clear
7:55 AM - - N/A% 29.78 in 10.0 mi South 10.4 mph 17.3 mph N/A   Clear
8:15 AM - - N/A% 29.77 in 10.0 mi South 15.0 mph 21.9 mph N/A   Clear
8:35 AM - - N/A% 29.77 in 10.0 mi South 12.7 mph 27.6 mph N/A   Clear
8:55 AM - - N/A% 29.76 in 10.0 mi South 18.4 mph 29.9 mph N/A   Clear
9:15 AM - - N/A% 29.75 in 10.0 mi South 18.4 mph 28.8 mph N/A   Clear
9:35 AM - - N/A% 29.76 in 10.0 mi South 16.1 mph 23.0 mph N/A   Clear
9:55 AM - - N/A% 29.75 in 10.0 mi South 18.4 mph 34.5 mph N/A   Clear
10:15 AM - - N/A% 29.74 in 10.0 mi SSW 9.2 mph 26.5 mph N/A   Clear
10:35 AM - - N/A% 29.72 in 10.0 mi South 18.4 mph 33.4 mph N/A   Clear
10:55 AM - - N/A% 29.71 in 10.0 mi South 13.8 mph 26.5 mph N/A   Clear
11:15 AM - - N/A% 29.70 in 10.0 mi South 18.4 mph 27.6 mph N/A   Clear
11:35 AM - - N/A% 29.70 in 10.0 mi South 18.4 mph 31.1 mph N/A   Clear
11:55 AM - - N/A% 29.70 in 10.0 mi South 15.0 mph 29.9 mph N/A   Clear
12:15 PM - - N/A% 29.69 in 10.0 mi SSW 15.0 mph 31.1 mph N/A   Clear
12:35 PM - - N/A% 29.70 in 10.0 mi South 13.8 mph 25.3 mph N/A   Clear
12:55 PM - - N/A% 29.69 in 10.0 mi South 12.7 mph 23.0 mph N/A   Clear
1:15 PM - - N/A% 29.68 in 10.0 mi South 12.7 mph 20.7 mph N/A   Clear
1:35 PM - - N/A% 29.66 in 10.0 mi South 10.4 mph 21.9 mph N/A   Clear
1:55 PM - - N/A% 29.66 in 10.0 mi South 13.8 mph 28.8 mph N/A   Clear
2:15 PM - - N/A% 29.65 in 10.0 mi South 13.8 mph 25.3 mph N/A   Clear
2:35 PM - - N/A% 29.65 in 10.0 mi SSW 12.7 mph 24.2 mph N/A   Clear
2:55 PM - - N/A% 29.64 in 10.0 mi South 16.1 mph 31.1 mph N/A   Clear
3:15 PM - - N/A% 29.63 in 10.0 mi South 16.1 mph 35.7 mph N/A   Clear
3:35 PM - - N/A% 29.63 in 10.0 mi South 17.3 mph 23.0 mph N/A   Clear
3:55 PM - - N/A% 29.62 in 10.0 mi South 15.0 mph 29.9 mph N/A   Clear
4:15 PM - - N/A% 29.62 in 10.0 mi South 15.0 mph 24.2 mph N/A   Clear
4:35 PM - - N/A% 29.62 in 10.0 mi South 11.5 mph 24.2 mph N/A   Clear
4:55 PM - - N/A% 29.61 in 10.0 mi South 9.2 mph 18.4 mph N/A   Clear
5:15 PM - - N/A% 29.62 in 10.0 mi South 9.2 mph 21.9 mph N/A   Clear
5:35 PM - - N/A% 29.61 in 10.0 mi South 15.0 mph 25.3 mph N/A   Clear
5:55 PM - - N/A% 29.61 in 10.0 mi South 12.7 mph 29.9 mph N/A   Clear
6:15 PM - - N/A% 29.61 in 10.0 mi South 15.0 mph 26.5 mph N/A   Clear
6:35 PM - - N/A% 29.60 in 10.0 mi South 11.5 mph 20.7 mph N/A   Clear
6:55 PM - - N/A% 29.60 in 10.0 mi South 9.2 mph 21.9 mph N/A   Clear
7:15 PM - - N/A% 29.60 in 10.0 mi South 10.4 mph 18.4 mph N/A   Clear
7:35 PM - - N/A% 29.60 in 10.0 mi South 9.2 mph 19.6 mph N/A   Clear
7:55 PM - - N/A% 29.60 in 10.0 mi South 6.9 mph 23.0 mph N/A   Clear
8:15 PM - - N/A% 29.60 in 10.0 mi South 8.1 mph 16.1 mph N/A   Scattered Clouds
8:35 PM - - N/A% 29.59 in 10.0 mi South 12.7 mph 21.9 mph N/A   Scattered Clouds
8:55 PM - - N/A% 29.59 in 10.0 mi South 9.2 mph 18.4 mph N/A   Mostly Cloudy
9:15 PM - - N/A% 29.58 in 10.0 mi South 11.5 mph 19.6 mph N/A   Overcast
9:35 PM - - N/A% 29.59 in 7.0 mi South 9.2 mph 16.1 mph N/A Rain Rain
9:55 PM - - N/A% 29.59 in 10.0 mi South 6.9 mph - N/A Rain Light Rain
10:15 PM - - N/A% 29.58 in 10.0 mi South 9.2 mph - N/A Rain Rain
10:35 PM - - N/A% 29.58 in 7.0 mi South 10.4 mph 17.3 mph N/A Rain Rain
10:55 PM - - N/A% 29.58 in 5.0 mi South 11.5 mph 18.4 mph N/A Rain Rain
11:15 PM - - N/A% 29.57 in 7.0 mi South 10.4 mph 19.6 mph N/A Rain Rain
11:35 PM - - N/A% 29.56 in 10.0 mi South 6.9 mph - N/A Rain Rain
11:55 PM - - N/A% 29.56 in 10.0 mi South 6.9 mph - N/A Rain Light Rain